| time (UTC) | temp C | wind direction | speed KPH | gust KPH | rain 1hr cm | rain 24hr cm | rain mn cm | humidity % | barometer mb |
| 20260906224549 | 18 | 64 | 17.7 | 24.1 | 0.00 | 0.00 | 0.00 | 69 | 1016.6 |
| 20260906223051 | 18 | 47 | 12.9 | 19.3 | 0.00 | 0.00 | 0.00 | 70 | 1016.6 |
| 20260906221544 | 18 | 74 | 14.5 | 19.3 | 0.00 | 0.00 | 0.00 | 69 | 1016.7 |
| 20260906220052 | 18 | 57 | 14.5 | 25.7 | 0.00 | 0.00 | 0.00 | 70 | 1016.6 |
| 20260906214553 | 18 | 69 | 14.5 | 24.1 | 0.00 | 0.00 | 0.00 | 70 | 1016.6 |
| 20260906213044 | 18 | 76 | 16.1 | 22.5 | 0.00 | 0.00 | 0.00 | 71 | 1016.7 |
| 20260906211552 | 18 | 81 | 14.5 | 19.3 | 0.00 | 0.00 | 0.00 | 70 | 1016.5 |
| 20260906210058 | 18 | 88 | 11.3 | 22.5 | 0.00 | 0.00 | 0.00 | 71 | 1016.7 |
| 20260906204551 | 18 | 73 | 11.3 | 19.3 | 0.00 | 0.00 | 0.00 | 70 | 1016.8 |
| 20260906203050 | 18 | 67 | 12.9 | 20.9 | 0.00 | 0.00 | 0.00 | 70 | 1017.1 |
| 20260906201601 | 18 | 57 | 11.3 | 20.9 | 0.00 | 0.00 | 0.00 | 69 | 1017.2 |
| 20260906200111 | 18 | 105 | 9.7 | 20.9 | 0.00 | 0.00 | 0.00 | 69 | 1017.2 |
| 20260906194554 | 18 | 88 | 17.7 | 30.6 | 0.00 | 0.00 | 0.00 | 68 | 1017.0 |
| 20260906193052 | 18 | 80 | 19.3 | 27.4 | 0.00 | 0.00 | 0.00 | 68 | 1017.1 |
| 20260906191551 | 18 | 54 | 20.9 | 33.8 | 0.00 | 0.00 | 0.00 | 68 | 1017.3 |
| 20260906190139 | 17 | 86 | 24.1 | 33.8 | 0.00 | 0.00 | 0.00 | 71 | 1017.2 |
| 20260906184553 | 16 | 82 | 25.7 | 38.6 | 0.00 | 0.00 | 0.00 | 72 | 1017.5 |
| 20260906183058 | 16 | 83 | 27.4 | 38.6 | 0.00 | 0.00 | 0.00 | 73 | 1017.5 |
| 20260906181601 | 15 | 78 | 25.7 | 37.0 | 0.00 | 0.00 | 0.00 | 77 | 1017.8 |
| 20260906180056 | 15 | 44 | 22.5 | 35.4 | 0.00 | 0.00 | 0.00 | 79 | 1018.7 |
| 20260906174552 | 14 | 33 | 22.5 | 32.2 | 0.00 | 0.00 | 0.00 | 80 | 1019.2 |
| 20260906173057 | 15 | 54 | 17.7 | 27.4 | 0.00 | 0.00 | 0.00 | 82 | 1019.3 |
| 20260906171556 | 14 | 53 | 17.7 | 25.7 | 0.00 | 0.00 | 0.00 | 85 | 1019.2 |
| 20260906170051 | 14 | 61 | 16.1 | 22.5 | 0.00 | 0.00 | 0.00 | 87 | 1019.2 |
| 20260906164552 | 15 | 64 | 11.3 | 20.9 | 0.00 | 0.00 | 0.00 | 87 | 1019.2 |
| 20260906163103 | 14 | 42 | 11.3 | 16.1 | 0.00 | 0.00 | 0.00 | 86 | 1019.1 |
| 20260906161557 | 13 | 38 | 9.7 | 16.1 | 0.00 | 0.00 | 0.00 | 87 | 1019.2 |
| 20260906160059 | 14 | 40 | 16.1 | 22.5 | 0.00 | 0.00 | 0.00 | 86 | 1019.4 |
| 20260906154612 | 15 | 47 | 3.2 | 11.3 | 0.00 | 0.00 | 0.00 | 86 | 1019.7 |
| 20260906153059 | 15 | 75 | 6.4 | 12.9 | 0.00 | 0.00 | 0.00 | 85 | 1019.8 |
| 20260906151600 | 15 | 92 | 11.3 | 16.1 | 0.00 | 0.00 | 0.00 | 85 | 1019.9 |
| 20260906150036 | 15 | 91 | 11.3 | 19.3 | 0.00 | 0.00 | 0.00 | 84 | 1019.9 |
| 20260906144537 | 15 | 113 | 19.3 | 27.4 | 0.00 | 0.00 | 0.00 | 83 | 1019.4 |
| 20260906143033 | 15 | 101 | 22.5 | 32.2 | 0.00 | 0.00 | 0.00 | 83 | 1018.9 |
| 20260906141540 | 15 | 96 | 19.3 | 24.1 | 0.00 | 0.00 | 0.00 | 84 | 1019.4 |
| 20260906140044 | 14 | 112 | 12.9 | 20.9 | 0.00 | 0.00 | 0.00 | 86 | 1019.7 |
| 20260906134535 | 14 | 88 | 14.5 | 24.1 | 0.00 | 0.00 | 0.00 | 87 | 1019.6 |
| 20260906133046 | 13 | 93 | 14.5 | 20.9 | 0.00 | 0.00 | 0.00 | 88 | 1019.6 |
| 20260906131539 | 13 | 82 | 14.5 | 22.5 | 0.00 | 0.00 | 0.00 | 89 | 1019.5 |
| 20260906130046 | 13 | 65 | 12.9 | 19.3 | 0.00 | 0.00 | 0.00 | 89 | 1020.0 |
| 20260906124534 | 13 | 44 | 14.5 | 19.3 | 0.00 | 0.00 | 0.00 | 89 | 1019.9 |
| 20260906123041 | 13 | 57 | 16.1 | 24.1 | 0.00 | 0.00 | 0.00 | 89 | 1019.4 |
| 20260906121536 | 12 | 52 | 14.5 | 20.9 | 0.00 | 0.00 | 0.00 | 90 | 1019.4 |
| 20260906120044 | 12 | 57 | 14.5 | 22.5 | 0.00 | 0.00 | 0.00 | 90 | 1019.3 |
| 20260906114536 | 12 | 63 | 16.1 | 24.1 | 0.00 | 0.00 | 0.00 | 89 | 1019.3 |
| 20260906113041 | 12 | 70 | 19.3 | 29.0 | 0.00 | 0.00 | 0.00 | 89 | 1019.2 |
| 20260906111550 | 12 | 36 | 20.9 | 25.7 | 0.00 | 0.00 | 0.00 | 89 | 1019.4 |
| 20260906110036 | 12 | 53 | 17.7 | 25.7 | 0.00 | 0.00 | 0.00 | 89 | 1019.4 |
| 20260906104536 | 12 | 65 | 19.3 | 27.4 | 0.00 | 0.00 | 0.00 | 90 | 1019.4 |
| 20260906103036 | 12 | 55 | 22.5 | 32.2 | 0.00 | 0.00 | 0.00 | 89 | 1019.6 |
| 20260906101536 | 12 | 49 | 20.9 | 29.0 | 0.00 | 0.00 | 0.00 | 88 | 1019.7 |
| 20260906100036 | 12 | 59 | 24.1 | 32.2 | 0.00 | 0.00 | 0.00 | 88 | 1019.5 |
| 20260906094536 | 12 | 55 | 25.7 | 33.8 | 0.00 | 0.00 | 0.00 | 88 | 1019.3 |
| 20260906093047 | 12 | 63 | 25.7 | 35.4 | 0.00 | 0.00 | 0.00 | 87 | 1019.4 |
| 20260906091535 | 12 | 46 | 24.1 | 35.4 | 0.00 | 0.00 | 0.00 | 87 | 1019.6 |
| 20260906090107 | 12 | 40 | 24.1 | 33.8 | 0.00 | 0.00 | 0.00 | 87 | 1019.8 |
| 20260906084541 | 12 | 44 | 25.7 | 32.2 | 0.00 | 0.00 | 0.00 | 86 | 1019.9 |
| 20260906083042 | 13 | 65 | 25.7 | 37.0 | 0.00 | 0.00 | 0.00 | 85 | 1020.1 |
| 20260906081543 | 13 | 67 | 24.1 | 32.2 | 0.00 | 0.00 | 0.00 | 84 | 1020.0 |
| 20260906080042 | 13 | 57 | 24.1 | 35.4 | 0.00 | 0.00 | 0.00 | 83 | 1020.0 |
| 20260906074551 | 13 | 67 | 24.1 | 37.0 | 0.00 | 0.00 | 0.00 | 83 | 1020.2 |
| 20260906073045 | 13 | 63 | 24.1 | 37.0 | 0.00 | 0.00 | 0.00 | 82 | 1020.3 |
| 20260906071543 | 13 | 47 | 24.1 | 35.4 | 0.00 | 0.00 | 0.00 | 81 | 1020.5 |
| 20260906070042 | 13 | 73 | 24.1 | 35.4 | 0.00 | 0.00 | 0.00 | 81 | 1020.7 |
| 20260906064544 | 13 | 64 | 27.4 | 35.4 | 0.00 | 0.00 | 0.00 | 80 | 1020.7 |
| 20260906063040 | 14 | 68 | 25.7 | 37.0 | 0.00 | 0.00 | 0.00 | 80 | 1021.0 |
| 20260906061550 | 13 | 68 | 25.7 | 35.4 | 0.00 | 0.00 | 0.00 | 79 | 1020.8 |
| 20260906060044 | 13 | 63 | 24.1 | 33.8 | 0.00 | 0.00 | 0.00 | 79 | 1020.9 |
| 20260906054553 | 14 | 60 | 22.5 | 37.0 | 0.00 | 0.00 | 0.00 | 79 | 1020.7 |
| 20260906053100 | 14 | 66 | 25.7 | 37.0 | 0.00 | 0.00 | 0.00 | 78 | 1020.9 |
| 20260906051545 | 14 | 67 | 25.7 | 37.0 | 0.00 | 0.00 | 0.00 | 76 | 1020.7 |
| 20260906050052 | 15 | 62 | 27.4 | 38.6 | 0.00 | 0.00 | 0.00 | 74 | 1020.7 |
| 20260906044547 | 15 | 34 | 24.1 | 35.4 | 0.00 | 0.00 | 0.00 | 73 | 1020.7 |
| 20260906043053 | 15 | 67 | 25.7 | 37.0 | 0.00 | 0.00 | 0.00 | 72 | 1020.0 |
| 20260906041556 | 15 | 61 | 24.1 | 38.6 | 0.00 | 0.00 | 0.00 | 71 | 1019.8 |
| 20260906040050 | 15 | 47 | 29.0 | 37.0 | 0.00 | 0.00 | 0.00 | 71 | 1020.0 |
| 20260906034547 | 15 | 55 | 25.7 | 35.4 | 0.00 | 0.00 | 0.00 | 70 | 1020.4 |
| 20260906033054 | 15 | 33 | 25.7 | 40.2 | 0.00 | 0.00 | 0.00 | 69 | 1020.7 |
| 20260906031547 | 15 | 62 | 25.7 | 37.0 | 0.00 | 0.00 | 0.00 | 68 | 1020.1 |
| 20260906030056 | 15 | 51 | 27.4 | 35.4 | 0.00 | 0.00 | 0.00 | 68 | 1019.4 |
| 20260906024609 | 15 | 67 | 25.7 | 37.0 | 0.00 | 0.00 | 0.00 | 67 | 1019.0 |
| 20260906023059 | 16 | 63 | 25.7 | 37.0 | 0.00 | 0.00 | 0.00 | 66 | 1019.0 |
| 20260906021558 | 16 | 59 | 27.4 | 38.6 | 0.00 | 0.00 | 0.00 | 65 | 1019.1 |
| 20260906020051 | 16 | 86 | 27.4 | 35.4 | 0.00 | 0.00 | 0.00 | 64 | 1019.3 |
| 20260906014554 | 17 | 50 | 22.5 | 35.4 | 0.00 | 0.00 | 0.00 | 61 | 1019.0 |
| 20260906013057 | 18 | 35 | 20.9 | 32.2 | 0.00 | 0.00 | 0.00 | 58 | 1019.0 |
| 20260906011559 | 18 | 42 | 25.7 | 38.6 | 0.00 | 0.00 | 0.00 | 57 | 1018.8 |
| 20260906010128 | 20 | 57 | 29.0 | 38.6 | 0.00 | 0.00 | 0.00 | 53 | 1018.9 |
| 20260906004600 | 21 | 24 | 25.7 | 33.8 | 0.00 | 0.00 | 0.00 | 49 | 1018.9 |
| 20260906003058 | 22 | 32 | 25.7 | 33.8 | 0.00 | 0.00 | 0.00 | 44 | 1018.9 |
| 20260906001603 | 22 | 52 | 19.3 | 30.6 | 0.00 | 0.00 | 0.00 | 37 | 1018.8 |
| 20260906000107 | 23 | 76 | 16.1 | 24.1 | 0.00 | 0.00 | 0.00 | 35 | 1018.9 |
| 20260905234547 | 22 | 65 | 14.5 | 29.0 | 0.00 | 0.00 | 0.00 | 36 | 1019.1 |
| 20260905233055 | 23 | 60 | 14.5 | 24.1 | 0.00 | 0.00 | 0.00 | 34 | 1019.1 |
| 20260905231553 | 23 | 66 | 14.5 | 25.7 | 0.00 | 0.00 | 0.00 | 34 | 1019.2 |
| 20260905230111 | 23 | 74 | 12.9 | 22.5 | 0.00 | 0.00 | 0.00 | 35 | 1019.1 |